Location: Brunembert
(50.7122°N, 1.8935°E)
Time: 09:26:36
(UTC+00:00)

Cosmos 1603 - Pass Details

Date: 22 April 2021
Orbit: 830 x 860 km, 71.0° (Epoch: 05 May)

Event Time Altitude Azimuth Distance (km) Brightness Sun altitude
Rises 22:28:57 0° 327° (NNW) 3,439 8.2 -24.3°
Reaches altitude 10° 22:31:28 10° 324° (NW) 2,495 7.1 -24.4°
Maximum altitude 22:37:01 54° 248° (WSW) 1,026 4.0 -24.7°
Enters shadow 22:37:53 49° 217° (SW) 1,082 4.0 -24.8°
